Retour au catalogue

NOAA 16 DEB

ActifSSO
NORAD 41513·DEBRIS·🇺🇸 United States

Lancé Sep 21, 2000 depuis Vandenberg Space Force Base

Loading…

Prochains Passages (prochaines 24 heures)

TLE

FraisSource: Space-Track

Époque: Sep 14, 2026, 10:55 UTC

1 41513U 00055MM  26257.45508689  .00002581  00000-0  12408-2 0  9994
2 41513  98.7423 257.1512 0053484  30.1040 330.3192 14.18945144537539

Suivez NOAA 16 DEB en temps réel avec AllMySat

Download on the App Store